DW8816 Weather Reports


time (UTC)temp
F
wind
direction
speed
knots
gust
knots
rain 1hr
in
rain 24hr
in
rain mn
in
humidity
%
barometer
mb
20260507065003 50 84 0.9 3.5 0.00 0.00 0.00 89 1015.3
20260507064005 48 0 0.0 0.9 0.00 0.00 0.00 93 1015.3
20260507063005 47 0 0.0 0.9 0.00 0.00 0.00 92 1015.2
20260507061003 46 72 0.0 1.7 0.00 0.00 0.00 92 1015.2
20260507060004 46 72 0.9 2.6 0.00 0.00 0.00 92 1015.1
20260507055004 46 0 0.0 1.7 0.00 0.00 0.00 92 1015.0
20260507053004 46 0 0.0 1.7 0.00 0.00 0.00 91 1014.8
20260507052004 46 72 0.0 1.7 0.00 0.00 0.00 92 1014.8
20260507051004 46 72 0.9 2.6 0.00 0.00 0.00 91 1014.8
20260507050003 46 0 0.0 2.6 0.00 0.00 0.00 91 1014.7
20260507045003 46 0 0.0 2.6 0.00 0.00 0.00 91 1014.7
20260507044004 46 72 0.0 2.6 0.00 0.00 0.00 91 1014.6
20260507043004 46 72 1.7 2.6 0.00 0.00 0.00 92 1014.7
20260507042005 46 56 1.7 4.3 0.00 0.00 0.00 92 1014.6
20260507040004 45 349 0.0 2.6 0.00 0.00 0.00 92 1014.6
20260507035003 45 349 0.0 1.7 0.00 0.00 0.00 92 1014.6
20260507034003 45 350 0.9 1.7 0.00 0.00 0.00 92 1014.5
20260507033004 45 349 0.9 3.5 0.00 0.00 0.00 92 1014.5
20260507031004 45 346 0.9 2.6 0.00 0.00 0.00 92 1014.5
20260507030003 44 346 0.9 2.6 0.00 0.00 0.00 92 1014.6
20260507025004 44 346 0.0 2.6 0.00 0.00 0.00 92 1014.6
20260507024005 44 346 0.9 3.5 0.00 0.00 0.00 92 1014.6
20260507023005 44 354 1.7 3.5 0.00 0.00 0.00 92 1014.6
20260507022004 44 1 1.7 3.5 0.00 0.00 0.00 91 1014.5
20260507021004 45 5 0.9 3.5 0.00 0.00 0.00 91 1014.5
20260507020004 45 13 0.0 3.5 0.00 0.00 0.00 91 1014.4
20260507015004 46 25 0.0 1.7 0.00 0.00 0.00 91 1014.3
20260507014005 45 25 0.9 2.6 0.00 0.00 0.00 91 1014.3
20260507013004 45 25 0.0 2.6 0.00 0.00 0.00 91 1014.3
20260507012004 45 25 0.9 1.7 0.00 0.00 0.00 91 1014.3
20260507011004 45 25 0.9 2.6 0.00 0.00 0.00 91 1014.3
20260507010004 45 25 0.9 3.5 0.00 0.00 0.00 91 1014.2
20260507003004 45 15 0.9 3.5 0.00 0.00 0.00 91 1014.4
20260507002004 45 13 0.9 2.6 0.00 0.00 0.00 91 1014.5
20260507001005 45 15 0.9 3.5 0.00 0.00 0.00 91 1014.5
20260507000005 45 355 0.9 4.3 0.00 0.00 0.00 91 1014.5
20260506235005 45 354 0.9 3.5 0.00 0.00 0.00 90 1014.4
20260506234004 46 355 0.9 3.5 0.00 0.00 0.00 90 1014.3
20260506233004 46 355 0.9 2.6 0.00 0.00 0.00 89 1014.2
20260506230004 47 354 1.7 4.3 0.00 0.00 0.00 88 1014.2
20260506225004 47 5 0.9 3.5 0.00 0.00 0.00 88 1014.1
20260506224004 47 5 1.7 4.3 0.00 0.00 0.00 87 1014.2
20260506223005 47 18 1.7 5.2 0.00 0.00 0.00 87 1014.1
20260506222003 48 356 1.7 3.5 0.00 0.00 0.00 86 1014.1
20260506220004 48 356 1.7 4.3 0.00 0.00 0.00 85 1014.1
20260506215004 48 30 1.7 4.3 0.00 0.00 0.00 84 1014.1
20260506214004 48 45 2.6 7.0 0.00 0.00 0.00 84 1014.0
20260506213004 48 35 1.7 7.8 0.00 0.00 0.00 83 1014.0
20260506212003 48 31 1.7 5.2 0.00 0.00 0.00 83 1014.0
20260506211004 49 35 1.7 7.0 0.00 0.00 0.00 83 1014.0
20260506205003 49 13 2.6 7.0 0.00 0.00 0.00 82 1013.9
20260506203005 49 32 2.6 6.1 0.00 0.00 0.00 81 1013.7
20260506201004 50 33 2.6 8.7 0.00 0.00 0.00 79 1013.6
20260506200004 50 32 1.7 7.8 0.00 0.00 0.00 79 1013.5
20260506195005 51 36 1.7 7.0 0.00 0.00 0.00 79 1013.4
20260506194005 51 18 2.6 7.8 0.00 0.00 0.00 77 1013.3
20260506193004 51 4 2.6 8.7 0.00 0.00 0.00 76 1013.2
20260506192005 52 354 2.6 7.0 0.00 0.00 0.00 75 1013.1
20260506191004 52 5 2.6 7.8 0.00 0.00 0.00 73 1013.0
20260506190003 53 358 1.7 7.0 0.00 0.00 0.00 72 1012.9
20260506185002 53 345 1.7 4.3 0.00 0.00 0.00 70 1012.9
20260506184003 53 12 3.5 7.8 0.00 0.00 0.00 69 1012.7
20260506183003 53 33 3.5 7.8 0.00 0.00 0.00 69 1012.7
20260506182003 53 35 3.5 11.3 0.00 0.00 0.00 68 1012.6
20260506181003 54 8 3.5 9.6 0.00 0.00 0.00 66 1012.5
20260506180003 54 343 4.3 10.4 0.00 0.00 0.00 65 1012.3
20260506174002 56 6 3.5 9.6 0.00 0.00 0.00 63 1012.2
20260506172003 56 3 4.3 9.6 0.00 0.00 0.00 63 1012.1
20260506171002 55 11 3.5 9.6 0.00 0.00 0.00 64 1012.1
20260506164003 55 5 4.3 10.4 0.00 0.00 0.00 66 1012.0
20260506163002 55 7 3.5 9.6 0.00 0.00 0.00 65 1012.1
20260506162003 55 357 4.3 8.7 0.00 0.00 0.00 64 1012.1
20260506160003 55 359 4.3 11.3 0.00 0.00 0.00 66 1012.1
20260506155002 55 15 3.5 10.4 0.00 0.00 0.00 66 1012.1
20260506153003 55 356 4.3 10.4 0.00 0.00 0.00 66 1012.2
20260506152003 55 6 3.5 10.4 0.00 0.00 0.00 67 1012.2
20260506151003 55 354 3.5 9.6 0.00 0.00 0.00 67 1012.2
20260506150002 55 356 3.5 7.8 0.00 0.00 0.00 67 1012.2
20260506145003 55 353 4.3 10.4 0.00 0.00 0.00 67 1012.3
20260506144002 55 6 4.3 7.8 0.00 0.00 0.00 68 1012.2
20260506143002 54 8 5.2 11.3 0.00 0.00 0.00 69 1012.2
20260506142003 54 8 6.1 12.2 0.00 0.00 0.00 69 1012.2
20260506141003 54 354 5.2 13.0 0.00 0.00 0.00 70 1012.3
20260506140003 53 349 5.2 11.3 0.00 0.00 0.00 71 1012.3
20260506135002 54 359 5.2 11.3 0.00 0.00 0.00 72 1012.4
20260506134003 54 350 4.3 12.2 0.00 0.00 0.00 70 1012.3
20260506133003 54 358 6.1 13.0 0.00 0.00 0.00 70 1012.4
20260506132002 53 356 7.0 14.8 0.00 0.00 0.00 71 1012.4
20260506131003 53 347 6.1 13.9 0.00 0.00 0.00 71 1012.5
20260506130003 54 5 4.3 13.0 0.00 0.00 0.00 72 1012.5
20260506125003 54 30 5.2 10.4 0.00 0.00 0.00 70 1012.5
20260506124004 54 33 5.2 11.3 0.00 0.00 0.00 69 1012.5
20260506123003 54 5 6.1 13.9 0.00 0.00 0.00 70 1012.4
20260506115003 53 356 5.2 13.0 0.00 0.00 0.00 72 1012.5
20260506114005 53 18 4.3 12.2 0.00 0.00 0.00 73 1012.5
20260506113004 52 24 4.3 12.2 0.00 0.00 0.00 73 1012.6
20260506112002 51 11 5.2 13.9 0.00 0.00 0.00 74 1012.6
20260506111003 52 25 4.3 11.3 0.00 0.00 0.00 74 1012.6
20260506110003 52 23 3.5 10.4 0.00 0.00 0.00 73 1012.6
20260506105002 52 6 5.2 11.3 0.00 0.00 0.00 73 1012.6
20260506104003 51 13 5.2 11.3 0.00 0.00 0.00 72 1012.7
20260506103003 51 14 4.3 10.4 0.00 0.00 0.00 72 1012.6
20260506102003 51 1 5.2 10.4 0.00 0.00 0.00 70 1012.6
20260506101003 51 19 5.2 12.2 0.00 0.00 0.00 70 1012.5
20260506095003 50 3 5.2 13.9 0.00 0.00 0.00 71 1012.7
20260506094003 51 359 4.3 13.0 0.00 0.00 0.00 72 1012.5
20260506093003 52 6 4.3 8.7 0.00 0.00 0.00 70 1012.5
20260506092002 52 21 6.1 11.3 0.00 0.00 0.00 72 1012.5
20260506090004 51 348 6.1 14.8 0.00 0.00 0.00 71 1012.4
20260506085003 51 8 4.3 11.3 0.00 0.00 0.00 73 1012.4
20260506084003 50 356 5.2 12.2 0.00 0.00 0.00 74 1012.3
20260506083003 49 355 5.2 10.4 0.00 0.00 0.00 71 1012.3
20260506082003 49 2 4.3 10.4 0.00 0.00 0.00 73 1012.3
20260506081004 49 352 6.1 12.2 0.00 0.00 0.00 77 1012.3
20260506073003 47 9 4.3 9.6 0.00 0.00 0.00 81 1012.3
20260506072003 47 355 5.2 11.3 0.00 0.00 0.00 82 1012.2
20260506071002 46 355 4.3 11.3 0.00 0.00 0.00 82 1012.3